This is the latest recevied weather packets stored in our database for station/object F5OWB. If no packets are shown the sender has not sent any weather packets the latest 10 day(s).
| Time | Temp. | Humidity | Pressure | Rain* | Wind** | Luminosity | Snow |
|---|---|---|---|---|---|---|---|
| 1778336903 | 21.67° C | 52% | 1016.8 hPa | 0 mm | - | 610 W/m² | - |
| 1778336839 | 21.67° C | 55% | 1016.8 hPa | 0 mm | - | 615 W/m² | - |
| 1778336778 | 21.67° C | 52% | 1016.8 hPa | 0 mm | - | 617 W/m² | - |
| 1778336718 | 21.67° C | 52% | 1016.8 hPa | 0 mm | - | 619 W/m² | - |
| 1778336659 | 21.67° C | 52% | 1016.8 hPa | 0 mm | - | 622 W/m² | - |
| 1778336601 | 21.67° C | 53% | 1016.8 hPa | 0 mm | - | 622 W/m² | - |
| 1778336538 | 21.67° C | 54% | 1016.8 hPa | 0 mm | - | 624 W/m² | - |
| 1778336478 | 21.67° C | 52% | 1016.8 hPa | 0 mm | - | 619 W/m² | - |
| 1778336415 | 21.67° C | 53% | 1016.8 hPa | 0 mm | - | 628 W/m² | - |
| 1778336353 | 21.67° C | 52% | 1016.9 hPa | 0 mm | - | 628 W/m² | - |
| 1778336297 | 21.67° C | 54% | 1016.9 hPa | 0 mm | - | 633 W/m² | - |
| 1778336232 | 21.67° C | 55% | 1016.9 hPa | 0 mm | - | 635 W/m² | - |
| 1778336170 | 21.67° C | 55% | 1016.9 hPa | 0 mm | - | 636 W/m² | - |
| 1778336113 | 21.67° C | 52% | 1016.9 hPa | 0 mm | - | 638 W/m² | - |
| 1778336052 | 21.67° C | 52% | 1017 hPa | 0 mm | - | 638 W/m² | - |
| 1778335985 | 21.67° C | 53% | 1017 hPa | 0 mm | - | 642 W/m² | - |
| 1778335922 | 21.67° C | 53% | 1017 hPa | 0 mm | - | 643 W/m² | - |
| 1778335863 | 21.67° C | 53% | 1017 hPa | 0 mm | - | 645 W/m² | - |
| 1778335804 | 21.67° C | 54% | 1017 hPa | 0 mm | - | 647 W/m² | - |
| 1778335743 | 21.67° C | 53% | 1017 hPa | 0 mm | - | 645 W/m² | - |
| 1778335683 | 21.67° C | 54% | 1017.1 hPa | 0 mm | - | 645 W/m² | - |
| 1778335623 | 21.67° C | 52% | 1017.1 hPa | 0 mm | - | 645 W/m² | - |
| 1778335562 | 21.67° C | 54% | 1017.1 hPa | 0 mm | - | 654 W/m² | - |
| 1778335503 | 21.67° C | 51% | 1017.1 hPa | 0 mm | - | 657 W/m² | - |
| 1778335443 | 21.67° C | 54% | 1017.2 hPa | 0 mm | - | 659 W/m² | - |
* Rain latest hour (hover to see other rain measurements)
** Current wind speed in m/s (hover to see current wind gust speed)